TimeGMT,TemperatureF,Dew PointF,Humidity,Sea Level PressureIn,VisibilityMPH,Wind Direction,Wind SpeedMPH,Gust SpeedMPH,PrecipitationIn,Events,Conditions,WindDirDegrees,DateUTC
12:00 AM,53,49,80,30.03,16,SSW,8.9,,,,Partly Cloudy,200,2013-01-08 00:00:00
12:00 AM,51.8,48.2,88,30.01,6.2,South,10.4,-,N/A,,Mostly Cloudy,190,2013-01-08 00:00:00
12:30 AM,51.8,48.2,88,30.01,6.2,SSW,13.8,-,N/A,,Mostly Cloudy,200,2013-01-08 00:30:00
1:00 AM,53.6,50.0,88,30.01,6.2,SSW,9.2,-,N/A,,Mostly Cloudy,200,2013-01-08 01:00:00
1:30 AM,53.6,50.0,88,30.01,6.2,SSW,12.7,-,N/A,,Mostly Cloudy,200,2013-01-08 01:30:00
2:00 AM,53.6,50.0,88,30.01,6.2,SSW,15.0,-,N/A,,Mostly Cloudy,200,2013-01-08 02:00:00
2:30 AM,53.6,50.0,88,30.01,6.2,SSW,15.0,-,N/A,,Mostly Cloudy,200,2013-01-08 02:30:00
3:00 AM,53.6,50.0,88,30.01,6.2,SSW,11.5,-,N/A,,Mostly Cloudy,200,2013-01-08 03:00:00
3:30 AM,53.6,50.0,88,30.01,6.2,SSW,12.7,-,N/A,,Mostly Cloudy,200,2013-01-08 03:30:00
4:00 AM,53.6,50.0,88,30.01,6.2,SSW,12.7,-,N/A,,Mostly Cloudy,210,2013-01-08 04:00:00
4:30 AM,53.6,50.0,88,30.01,6.2,SSW,12.7,-,N/A,,Mostly Cloudy,200,2013-01-08 04:30:00
5:00 AM,53.6,50.0,88,30.01,6.2,SSW,13.8,-,N/A,,Mostly Cloudy,210,2013-01-08 05:00:00
5:30 AM,53.6,50.0,88,30.01,6.2,SSW,12.7,-,N/A,,Mostly Cloudy,210,2013-01-08 05:30:00
6:00 AM,54,50,82,30.03,19,SW,13.4,,,,Partly Cloudy,220,2013-01-08 06:00:00
6:00 AM,53.6,50.0,88,30.01,6.2,SW,12.7,-,N/A,,Mostly Cloudy,220,2013-01-08 06:00:00
6:30 AM,53.6,50.0,88,30.01,6.2,SW,15.0,-,N/A,,Mostly Cloudy,220,2013-01-08 06:30:00
7:00 AM,53.6,50.0,88,30.04,6.2,SW,12.7,-,N/A,,Mostly Cloudy,220,2013-01-08 07:00:00
7:30 AM,53.6,50.0,88,30.04,6.2,SW,13.8,-,N/A,,Mostly Cloudy,230,2013-01-08 07:30:00
8:00 AM,51.8,50.0,94,30.06,6.2,WSW,17.3,-,N/A,,Light Drizzle,250,2013-01-08 08:00:00
8:30 AM,50.0,48.2,94,30.06,6.2,West,13.8,-,N/A,,Mostly Cloudy,270,2013-01-08 08:30:00
9:00 AM,50.0,46.4,87,30.09,6.2,West,12.7,-,N/A,,Light Drizzle,260,2013-01-08 09:00:00
9:30 AM,50.0,46.4,87,30.09,6.2,West,11.5,-,N/A,,Mostly Cloudy,260,2013-01-08 09:30:00
10:00 AM,48.2,46.4,93,30.12,6.2,West,13.8,-,N/A,,Mostly Cloudy,260,2013-01-08 10:00:00
10:30 AM,48.2,46.4,93,30.15,6.2,West,13.8,-,N/A,,Mostly Cloudy,270,2013-01-08 10:30:00
11:00 AM,48.2,44.6,87,30.15,6.2,West,12.7,-,N/A,,Mostly Cloudy,280,2013-01-08 11:00:00
11:30 AM,48.2,44.6,87,30.15,6.2,West,10.4,-,N/A,,Mostly Cloudy,270,2013-01-08 11:30:00
12:00 PM,48,44,80,30.17,19,West,8.9,,,,Partly Cloudy,280,2013-01-08 12:00:00
12:00 PM,48.2,44.6,87,30.15,6.2,West,9.2,-,N/A,,Mostly Cloudy,270,2013-01-08 12:00:00
12:30 PM,48.2,42.8,82,30.15,6.2,West,10.4,-,N/A,,Mostly Cloudy,270,2013-01-08 12:30:00
1:00 PM,48.2,42.8,82,30.15,6.2,West,11.5,-,N/A,,Mostly Cloudy,260,2013-01-08 13:00:00
1:30 PM,48.2,42.8,82,30.15,6.2,West,10.4,-,N/A,,Mostly Cloudy,270,2013-01-08 13:30:00
2:00 PM,48.2,44.6,87,30.15,6.2,West,11.5,-,N/A,,Scattered Clouds,270,2013-01-08 14:00:00
2:30 PM,48.2,42.8,82,30.15,6.2,West,11.5,-,N/A,,Scattered Clouds,270,2013-01-08 14:30:00
3:00 PM,48.2,42.8,82,30.18,6.2,West,11.5,-,N/A,,Partly Cloudy,280,2013-01-08 15:00:00
3:30 PM,48.2,42.8,82,30.18,6.2,WNW,10.4,-,N/A,,Partly Cloudy,300,2013-01-08 15:30:00
4:00 PM,46.4,41.0,81,30.18,6.2,West,11.5,-,N/A,,Partly Cloudy,280,2013-01-08 16:00:00
4:30 PM,44.6,41.0,87,30.18,6.2,West,11.5,-,N/A,,Partly Cloudy,270,2013-01-08 16:30:00
5:00 PM,42.8,39.2,87,30.21,6.2,WNW,5.8,-,N/A,,Partly Cloudy,290,2013-01-08 17:00:00
5:30 PM,41.0,39.2,93,30.21,6.2,West,8.1,-,N/A,,Partly Cloudy,260,2013-01-08 17:30:00
6:00 PM,39,38,92,30.24,22,West,6.7,,,,Scattered Clouds,270,2013-01-08 18:00:00
6:00 PM,39.2,37.4,93,30.21,6.2,West,6.9,-,N/A,,Partly Cloudy,270,2013-01-08 18:00:00
6:30 PM,39.2,37.4,93,30.21,6.2,West,5.8,-,N/A,,Partly Cloudy,270,2013-01-08 18:30:00
7:00 PM,39.2,37.4,93,30.21,6.2,West,6.9,-,N/A,,Partly Cloudy,280,2013-01-08 19:00:00
7:30 PM,39.2,39.2,100,30.24,6.2,West,8.1,-,N/A,,Partly Cloudy,270,2013-01-08 19:30:00
8:00 PM,41.0,39.2,93,30.24,6.2,West,8.1,-,N/A,,Mostly Cloudy,260,2013-01-08 20:00:00
8:30 PM,37.4,35.6,93,30.24,6.2,West,8.1,-,N/A,,Partly Cloudy,280,2013-01-08 20:30:00
9:00 PM,35.6,35.6,100,30.24,6.2,West,6.9,-,N/A,,Partly Cloudy,280,2013-01-08 21:00:00
9:30 PM,35.6,35.6,100,30.24,6.2,West,8.1,-,N/A,,Partly Cloudy,270,2013-01-08 21:30:00
10:00 PM,35.6,35.6,100,30.24,6.2,West,6.9,-,N/A,,Partly Cloudy,270,2013-01-08 22:00:00
10:30 PM,35.6,35.6,100,30.24,6.2,West,8.1,-,N/A,,Partly Cloudy,270,2013-01-08 22:30:00
11:00 PM,35.6,35.6,100,30.24,6.2,West,5.8,-,N/A,,Partly Cloudy,260,2013-01-08 23:00:00
11:30 PM,37.4,35.6,93,30.24,6.2,WSW,3.5,-,N/A,,Partly Cloudy,250,2013-01-08 23:30:00